User: anonymous   Login
Location: Unspecified
(0.0000°N, 0.0000°E)
Time: 22:41:31
(UTC+00:00)
Language:

CAPE 1 - Orbit

View from above orbital plane
View from above orbital plane
View from above satellite
View from above satellite

Ground track
Ground track

The orbit data is extracted from the following two-line orbital elements,

1 31130U 07012P   18344.05107568  .00000121  00000-0  36320-4 0  9992
2 31130  98.1435 283.3740 0095444 320.4128  39.0126 14.56360720617967
Epoch (UTC): 10 December 2018 01:13:32
Eccentricity: 0.0095444
inclination: 98.1435°
perigee height: 637 km
apogee height: 772 km
right ascension of ascending node: 283.3740°
argument of perigee: 320.4128°
revolutions per day: 14.56360720
mean anomaly at epoch: 39.0126°
orbit number at epoch: 61796

The dashed part of the orbit path shows where the satellite is in the earth's shadow,  

DLR